Skip Page Navigation
NASA JPL Caltech
NASA Logo - Jet Propulsion Laboratory + View the NASA Portal
+ Center for Near-Earth Object Studies
JPL Home Earth Solar System Stars & Galaxies Technology
JPL Solar System Dynamics
BODIES ORBITS EPHEMERIDES TOOLS PHYSICAL DATA DISCOVERY FAQ SITE MAP
JPL Small-Body Database Browser
Search: [ help ]  
(2013 EY108)
Classification: Mars-crossing Asteroid          SPK-ID: 3632906
Ephemeris | Orbit Diagram | Orbital Elements | Mission Design | Physical Parameters | Close-Approach Data ]

[ show orbit diagram ]
Orbital Elements at Epoch 2459200.5 (2020-Dec-17.0) TDB
Reference: JPL 7 (heliocentric ecliptic J2000)
 Element Value Uncertainty (1-sigma)   Units 
e .52205473135775 1.2912e-05  
a 2.924149973884675 1.2176e-06 au
q 1.397583644818539 3.718e-05 au
i 1.62711701475896 0.00021481 deg
node 172.4082615076518 0.00076909 deg
peri 21.81860732882529 0.018853 deg
M 193.5377489792083 0.0048349 deg
tp 2460045.022362071618
(2023-Apr-10.52236207)
0.025056 TDB
period 1826.40838076741
5.00
0.0011408
3.123e-06
d
yr
n .1971081625505557 1.2311e-07 deg/d
Q 4.450716302950812 1.8532e-06 au
  Orbit Determination Parameters
   # obs. used (total)      61  
   data-arc span      1865 days (5.11 yr)  
   first obs. used      2013-03-13  
   last obs. used      2018-04-21  
   planetary ephem.      DE441  
   SB-pert. ephem.      SB441-N16  
   condition code      3  
   norm. resid. RMS      .4611  
   source      ORB  
   producer      Otto Matic  
   solution date      2021-Apr-15 07:51:42  

Additional Information
 Earth MOID = .396498 au 
 Jupiter MOID = .506195 au 
 T_jup = 3.058 
[ show covariance matrix ]

Ephemeris | Orbit Diagram | Orbital Elements | Mission Design | Physical Parameters | Close-Approach Data ]

Physical Parameter Table
Parameter Symbol Value Units Sigma Reference Notes
absolute magnitude H 21.5   n/a MPO450579  

[ show close-approach data ]
Ephemeris | Orbit Diagram | Orbital Elements | Mission Design | Physical Parameters | Close-Approach Data ]
ABOUT SSD CREDITS/AWARDS PRIVACY/COPYRIGHT GLOSSARY LINKS
FirstGov 2021-May-12 09:16 UT
(server date/time)  
NASA Home Page
Site Manager:   Ryan S. Park
Webmaster  Alan B. Chamberlin